QPF
0.01 0.01 0.01 0.01 0.01 0.01 0.01 0.01 0.02 0.02 0.01 0.01 0.02 0.01 0.02 0.03 0.03 0.02 0.01 0.02 0.02 0.03 0.03 0.04 0.04 0.04 0.04 0.04 0.04 0.04 0.04 0.04 0.03 0.02 0.02 0.02 0.02 0.02 0.02 0.01 0.01 0.01 0.01 0.01
0.01 0.01 0.01 0.01 0.01 0.01 0.02 0.02 0.02 0.01 0.02 0.02 0.02 0.01 0.01 0.03 0.04 0.02 0.02 0.03 0.02 0.02 0.02 0.03 0.04 0.04 0.04 0.05 0.05 0.05 0.05 0.05 0.04 0.04 0.03 0.02 0.02 0.02 0.01 0.01 0.01 0.01 0.01 0.01
0.01 0.00 0.00 0.01 0.02 0.02 0.02 0.03 0.02 0.02 0.02 0.03 0.03 0.02 0.02 0.03 0.04 0.03 0.02 0.02 0.02 0.03 0.02 0.02 0.03 0.03 0.04 0.04 0.05 0.05 0.05 0.04 0.04 0.04 0.04 0.03 0.02 0.02 0.02 0.01 0.01 0.01 0.01 0.01
0.01 0.01 0.01 0.01 0.01 0.02 0.02 0.03 0.03 0.02 0.02 0.02 0.03 0.03 0.02 0.03 0.05 0.04 0.02 0.02 0.02 0.02 0.02 0.02 0.02 0.03 0.03 0.03 0.04 0.04 0.04 0.03 0.03 0.03 0.04 0.03 0.02 0.02 0.02 0.01 0.01 0.01 0.01 0.01
0.01 0.01 0.01 0.01 0.01 0.02 0.02 0.02 0.03 0.03 0.03 0.03 0.03 0.03 0.03 0.03 0.05 0.06 0.03 0.02 0.02 0.02 0.02 0.02 0.01 0.02 0.02 0.02 0.03 0.03 0.03 0.02 0.02 0.02 0.02 0.03 0.02 0.02 0.02 0.01 0.01 0.01 0.01 0.01
0.01 0.00 0.01 0.01 0.01 0.01 0.02 0.02 0.02 0.03 0.03 0.02 0.02 0.02 0.03 0.04 0.04 0.05 0.04 0.02 0.02 0.02 0.01 0.01 0.01 0.01 0.02 0.02 0.01 0.01 0.01 0.01 0.01 0.01 0.01 0.02 0.02 0.02 0.02 0.02 0.01 0.01 0.01 0.01
0.01 0.00 0.00 0.01 0.01 0.01 0.01 0.02 0.02 0.02 0.02 0.02 0.02 0.02 0.03 0.03 0.03 0.04 0.04 0.03 0.02 0.02 0.02 0.02 0.01 0.01 0.01 0.01 0.01 0.01 0.01 0.01 0.01 0.01 0.01 0.01 0.02 0.01 0.01 0.01 0.01 0.01 0.01 0.01
0.00 0.01 0.01 0.01 0.01 0.01 0.01 0.01 0.01 0.01 0.01 0.02 0.02 0.02 0.02 0.03 0.03 0.04 0.04 0.04 0.03 0.02 0.02 0.02 0.01 0.01 0.01 0.01 0.01 0.01 0.00 0.01 0.01 0.01 0.01 0.01 0.02 0.02 0.01 0.01 0.01 0.01 0.01 0.01
0.00 0.01 0.01 0.01 0.01 0.01 0.01 0.01 0.01 0.01 0.01 0.01 0.01 0.01 0.02 0.03 0.03 0.03 0.03 0.04 0.03 0.02 0.01 0.01 0.01 0.01 0.01 0.01 0.01 0.01 0.01 0.01 0.01 0.01 0.02 0.02 0.02 0.02 0.02 0.02 0.01 0.01 0.01 0.01
0.00 0.00 0.01 0.01 0.01 0.01 0.01 0.01 0.01 0.01 0.02 0.02 0.02 0.02 0.02 0.02 0.02 0.02 0.02 0.02 0.02 0.02 0.01 0.01 0.01 0.01 0.01 0.01 0.01 0.01 0.01 0.01 0.01 0.02 0.03 0.03 0.03 0.03 0.02 0.03 0.02 0.02 0.02 0.02
0.00 0.00 0.00 0.00 0.01 0.01 0.01 0.01 0.01 0.01 0.01 0.02 0.02 0.02 0.01 0.01 0.01 0.01 0.01 0.01 0.01 0.01 0.01 0.01 0.01 0.01 0.01 0.01 0.01 0.01 0.01 0.02 0.02 0.02 0.03 0.03 0.04 0.04 0.04 0.03 0.04 0.03 0.03 0.02
0.00 0.00 0.00 0.00 0.01 0.01 0.01 0.01 0.01 0.01 0.01 0.01 0.01 0.01 0.01 0.01 0.01 0.00 0.00 0.00 0.00 0.00 0.01 0.01 0.01 0.01 0.01 0.01 0.01 0.01 0.01 0.02 0.02 0.02 0.02 0.03 0.04 0.05 0.05 0.05 0.04 0.04 0.04 0.04
0.00 0.00 0.00 0.00 0.00 0.00 0.01 0.01 0.01 0.01 0.01 0.01 0.01 0.01 0.01 0.01 0.01 0.00 0.00 0.00 0.00 0.00 0.01 0.01 0.01 0.01 0.01 0.01 0.01 0.01 0.02 0.02 0.03 0.03 0.02 0.03 0.03 0.04 0.04 0.04 0.04 0.04 0.04 0.04
0.00 0.00 0.00 0.00 0.00 0.00 0.00 0.01 0.01 0.01 0.01 0.01 0.01 0.01 0.01 0.01 0.01 0.01 0.01 0.01 0.00 0.01 0.01 0.01 0.01 0.02 0.02 0.01 0.01 0.02 0.02 0.02 0.03 0.03 0.02 0.02 0.02 0.03 0.03 0.02 0.02 0.03 0.03 0.03
0.00 0.00 0.00 0.00 0.00 0.00 0.00 0.00 0.01 0.01 0.01 0.01 0.01 0.01 0.01 0.01 0.01 0.01 0.01 0.01 0.01 0.01 0.01 0.01 0.01 0.02 0.02 0.02 0.02 0.02 0.02 0.02 0.02 0.03 0.03 0.02 0.02 0.02 0.02 0.02 0.02 0.02 0.02 0.03
0.00 0.00 0.00 0.00 0.00 0.00 0.00 0.00 0.01 0.01 0.01 0.01 0.01 0.01 0.01 0.01 0.01 0.01 0.01 0.01 0.01 0.01 0.01 0.01 0.02 0.02 0.02 0.02 0.02 0.02 0.02 0.02 0.02 0.03 0.03 0.03 0.03 0.03 0.03 0.02 0.02 0.02 0.03 0.03
0.00 0.00 0.00 0.00 0.00 0.00 0.00 0.00 0.01 0.01 0.01 0.01 0.01 0.01 0.01 0.01 0.01 0.01 0.01 0.01 0.01 0.01 0.01 0.02 0.02 0.02 0.02 0.02 0.02 0.02 0.01 0.02 0.02 0.02 0.02 0.03 0.03 0.03 0.03 0.02 0.02 0.02 0.02 0.03
0.00 0.00 0.00 0.00 0.00 0.00 0.00 0.00 0.00 0.00 0.00 0.00 0.01 0.01 0.01 0.01 0.01 0.01 0.01 0.01 0.01 0.01 0.01 0.02 0.02 0.03 0.02 0.02 0.02 0.02 0.01 0.01 0.01 0.02 0.02 0.03 0.03 0.03 0.03 0.02 0.02 0.02 0.02 0.03
0.00 0.00 0.00 0.00 0.00 0.00 0.00 0.00 0.00 0.00 0.00 0.00 0.01 0.01 0.01 0.01 0.01 0.01 0.01 0.01 0.01 0.01 0.02 0.02 0.02 0.02 0.02 0.02 0.02 0.02 0.02 0.02 0.02 0.02 0.02 0.02 0.03 0.02 0.02 0.02 0.02 0.02 0.02 0.02
0.00 0.00 0.00 0.00 0.00 0.00 0.00 0.00 0.00 0.00 0.00 0.00 0.01 0.01 0.01 0.01 0.01 0.01 0.02 0.02 0.02 0.02 0.02 0.02 0.02 0.02 0.02 0.02 0.02 0.02 0.02 0.02 0.02 0.02 0.02 0.02 0.02 0.02 0.02 0.02 0.02 0.02 0.02 0.02
0.00 0.00 0.00 0.00 0.00 0.00 0.00 0.00 0.00 0.00 0.00 0.00 0.01 0.01 0.01 0.01 0.01 0.01 0.02 0.02 0.02 0.03 0.02 0.02 0.01 0.02 0.02 0.02 0.02 0.02 0.02 0.02 0.02 0.02 0.02 0.02 0.02 0.02 0.02 0.02 0.02 0.02 0.02 0.02
0.00 0.00 0.00 0.00 0.00 0.00 0.00 0.00 0.00 0.00 0.00 0.00 0.01 0.01 0.01 0.01 0.01 0.01 0.02 0.02 0.02 0.02 0.02 0.02 0.02 0.02 0.02 0.02 0.02 0.02 0.02 0.02 0.02 0.02 0.02 0.02 0.02 0.02 0.02 0.02 0.02 0.02 0.02 0.02
0.00 0.00 0.00 0.00 0.00 0.00 0.00 0.00 0.00 0.00 0.00 0.01 0.01 0.01 0.01 0.01 0.01 0.01 0.02 0.02 0.02 0.02 0.02 0.02 0.02 0.02 0.02 0.02 0.02 0.02 0.02 0.02 0.02 0.02 0.02 0.02 0.02 0.02 0.02 0.02 0.02 0.02 0.02 0.01
0.00 0.00 0.00 0.00 0.00 0.00 0.00 0.00 0.01 0.01 0.01 0.01 0.01 0.01 0.01 0.01 0.02 0.02 0.02 0.02 0.02 0.02 0.02 0.02 0.02 0.02 0.02 0.03 0.03 0.03 0.03 0.03 0.03 0.02 0.02 0.02 0.02 0.02 0.02 0.02 0.02 0.02 0.02 0.01
0.00 0.00 0.00 0.00 0.00 0.00 0.00 0.00 0.01 0.01 0.01 0.01 0.01 0.01 0.01 0.01 0.02 0.02 0.02 0.02 0.02 0.02 0.02 0.03 0.03 0.03 0.03 0.03 0.03 0.03 0.03 0.03 0.03 0.03 0.03 0.02 0.03 0.03 0.03 0.02 0.02 0.02 0.02 0.02
0.00 0.00 0.00 0.00 0.00 0.00 0.00 0.00 0.01 0.01 0.01 0.01 0.01 0.02 0.02 0.02 0.02 0.02 0.02 0.02 0.02 0.02 0.02 0.02 0.02 0.02 0.02 0.02 0.02 0.02 0.02 0.03 0.03 0.03 0.03 0.03 0.02 0.02 0.02 0.02 0.02 0.02 0.02 0.01
0.00 0.00 0.00 0.00 0.00 0.00 0.00 0.01 0.01 0.01 0.01 0.01 0.02 0.02 0.02 0.02 0.02 0.02 0.02 0.02 0.02 0.02 0.02 0.02 0.02 0.02 0.02 0.02 0.02 0.02 0.02 0.02 0.02 0.03 0.02 0.02 0.02 0.02 0.02 0.02 0.01 0.01 0.01 0.01
MSLP
1028.70 1028.42 1028.13 1027.80 1027.39 1026.86 1026.19 1025.39 1024.47 1023.46 1022.41 1021.37 1020.37 1019.45 1018.62 1017.86 1017.17 1016.51 1015.88 1015.28 1014.70 1014.18 1013.76 1013.48 1013.39 1013.51 1013.86 1014.44 1015.21 1016.13 1017.15 1018.22 1019.28 1020.31 1021.27 1022.17 1023.00 1023.78 1024.50 1025.17 1025.78 1026.33 1026.79 1027.16
1028.92 1028.59 1028.27 1027.95 1027.58 1027.13 1026.57 1025.89 1025.09 1024.20 1023.24 1022.27 1021.31 1020.39 1019.54 1018.75 1018.02 1017.34 1016.70 1016.10 1015.53 1015.03 1014.63 1014.35 1014.23 1014.30 1014.58 1015.05 1015.71 1016.50 1017.40 1018.35 1019.32 1020.28 1021.19 1022.06 1022.88 1023.64 1024.37 1025.04 1025.65 1026.21 1026.68 1027.06
1028.96 1028.52 1028.13 1027.75 1027.38 1026.97 1026.49 1025.92 1025.26 1024.50 1023.68 1022.81 1021.93 1021.07 1020.24 1019.46 1018.73 1018.04 1017.40 1016.81 1016.27 1015.80 1015.41 1015.15 1015.03 1015.07 1015.29 1015.68 1016.23 1016.92 1017.70 1018.55 1019.42 1020.30 1021.16 1021.98 1022.77 1023.53 1024.24 1024.90 1025.52 1026.08 1026.55 1026.95
1028.89 1028.31 1027.80 1027.35 1026.94 1026.54 1026.13 1025.66 1025.13 1024.53 1023.85 1023.12 1022.35 1021.56 1020.78 1020.03 1019.30 1018.61 1017.97 1017.38 1016.84 1016.38 1016.01 1015.76 1015.64 1015.67 1015.85 1016.20 1016.68 1017.28 1017.98 1018.74 1019.54 1020.35 1021.15 1021.94 1022.70 1023.43 1024.12 1024.78 1025.39 1025.94 1026.42 1026.82
1028.77 1028.06 1027.44 1026.90 1026.45 1026.05 1025.69 1025.32 1024.92 1024.46 1023.93 1023.34 1022.68 1021.98 1021.25 1020.52 1019.79 1019.08 1018.40 1017.78 1017.22 1016.74 1016.37 1016.12 1016.00 1016.02 1016.19 1016.51 1016.96 1017.52 1018.17 1018.88 1019.63 1020.39 1021.16 1021.91 1022.64 1023.35 1024.02 1024.66 1025.26 1025.80 1026.27 1026.68
1028.65 1027.84 1027.13 1026.53 1026.05 1025.67 1025.35 1025.07 1024.78 1024.45 1024.06 1023.59 1023.03 1022.40 1021.70 1020.96 1020.20 1019.43 1018.69 1018.01 1017.39 1016.87 1016.47 1016.20 1016.08 1016.11 1016.29 1016.61 1017.06 1017.62 1018.25 1018.94 1019.67 1020.41 1021.16 1021.89 1022.60 1023.29 1023.94 1024.56 1025.14 1025.66 1026.12 1026.52
1028.53 1027.69 1026.94 1026.32 1025.84 1025.48 1025.22 1025.01 1024.82 1024.60 1024.30 1023.92 1023.43 1022.83 1022.13 1021.35 1020.53 1019.68 1018.85 1018.07 1017.37 1016.79 1016.35 1016.06 1015.94 1015.98 1016.18 1016.54 1017.02 1017.59 1018.25 1018.95 1019.68 1020.42 1021.16 1021.87 1022.57 1023.24 1023.87 1024.47 1025.03 1025.53 1025.98 1026.36
1028.42 1027.60 1026.88 1026.29 1025.84 1025.52 1025.31 1025.17 1025.04 1024.88 1024.64 1024.30 1023.83 1023.23 1022.49 1021.66 1020.75 1019.81 1018.87 1017.99 1017.21 1016.57 1016.08 1015.78 1015.66 1015.73 1015.97 1016.37 1016.90 1017.52 1018.21 1018.94 1019.68 1020.43 1021.16 1021.87 1022.55 1023.20 1023.82 1024.40 1024.93 1025.42 1025.85 1026.22
1028.31 1027.57 1026.92 1026.40 1026.01 1025.74 1025.57 1025.46 1025.36 1025.22 1024.99 1024.65 1024.16 1023.51 1022.72 1021.81 1020.82 1019.79 1018.76 1017.81 1016.96 1016.27 1015.76 1015.46 1015.37 1015.47 1015.77 1016.22 1016.80 1017.46 1018.19 1018.94 1019.70 1020.45 1021.18 1021.88 1022.54 1023.18 1023.78 1024.34 1024.86 1025.34 1025.77 1026.13
1028.21 1027.58 1027.04 1026.60 1026.27 1026.05 1025.90 1025.78 1025.67 1025.50 1025.24 1024.85 1024.31 1023.60 1022.75 1021.78 1020.72 1019.62 1018.55 1017.55 1016.68 1015.98 1015.49 1015.21 1015.16 1015.31 1015.66 1016.17 1016.79 1017.50 1018.25 1019.01 1019.77 1020.51 1021.22 1021.90 1022.55 1023.16 1023.75 1024.30 1024.82 1025.30 1025.72 1026.09
1028.13 1027.63 1027.20 1026.85 1026.57 1026.36 1026.19 1026.04 1025.86 1025.62 1025.29 1024.82 1024.21 1023.44 1022.54 1021.53 1020.44 1019.33 1018.26 1017.27 1016.43 1015.77 1015.33 1015.10 1015.11 1015.33 1015.73 1016.27 1016.93 1017.65 1018.40 1019.16 1019.90 1020.61 1021.29 1021.94 1022.56 1023.15 1023.73 1024.28 1024.80 1025.29 1025.73 1026.11
1028.12 1027.74 1027.40 1027.11 1026.85 1026.62 1026.40 1026.16 1025.88 1025.53 1025.09 1024.53 1023.84 1023.03 1022.10 1021.09 1020.03 1018.96 1017.95 1017.03 1016.27 1015.69 1015.33 1015.18 1015.26 1015.53 1015.97 1016.54 1017.20 1017.91 1018.64 1019.37 1020.06 1020.73 1021.37 1021.98 1022.57 1023.15 1023.72 1024.27 1024.81 1025.31 1025.77 1026.18
1028.21 1027.93 1027.65 1027.38 1027.10 1026.81 1026.49 1026.14 1025.73 1025.25 1024.69 1024.04 1023.29 1022.44 1021.52 1020.55 1019.56 1018.58 1017.67 1016.87 1016.23 1015.76 1015.49 1015.43 1015.57 1015.88 1016.34 1016.92 1017.56 1018.24 1018.93 1019.60 1020.24 1020.86 1021.45 1022.02 1022.58 1023.15 1023.71 1024.28 1024.83 1025.36 1025.85 1026.28
1028.43 1028.21 1027.96 1027.67 1027.34 1026.95 1026.51 1026.01 1025.46 1024.85 1024.17 1023.44 1022.64 1021.80 1020.91 1020.01 1019.12 1018.27 1017.49 1016.83 1016.31 1015.96 1015.79 1015.80 1015.98 1016.32 1016.78 1017.33 1017.94 1018.58 1019.21 1019.82 1020.41 1020.97 1021.52 1022.06 1022.60 1023.16 1023.72 1024.30 1024.87 1025.42 1025.94 1026.40
1028.77 1028.58 1028.33 1027.99 1027.58 1027.08 1026.50 1025.86 1025.16 1024.42 1023.65 1022.85 1022.03 1021.21 1020.38 1019.58 1018.81 1018.09 1017.45 1016.93 1016.53 1016.28 1016.18 1016.24 1016.44 1016.78 1017.22 1017.73 1018.29 1018.87 1019.45 1020.01 1020.55 1021.08 1021.59 1022.11 1022.64 1023.19 1023.77 1024.35 1024.94 1025.51 1026.04 1026.51
1029.21 1029.03 1028.74 1028.35 1027.84 1027.22 1026.51 1025.73 1024.91 1024.07 1023.22 1022.38 1021.56 1020.78 1020.03 1019.32 1018.67 1018.08 1017.57 1017.15 1016.84 1016.66 1016.61 1016.69 1016.89 1017.20 1017.60 1018.07 1018.58 1019.11 1019.64 1020.16 1020.67 1021.18 1021.68 1022.20 1022.73 1023.28 1023.86 1024.45 1025.04 1025.62 1026.15 1026.63
1029.69 1029.49 1029.17 1028.71 1028.10 1027.38 1026.55 1025.67 1024.75 1023.83 1022.94 1022.09 1021.30 1020.57 1019.89 1019.28 1018.73 1018.25 1017.83 1017.49 1017.24 1017.09 1017.04 1017.11 1017.28 1017.55 1017.91 1018.33 1018.80 1019.29 1019.80 1020.31 1020.82 1021.32 1021.83 1022.35 1022.89 1023.45 1024.03 1024.61 1025.20 1025.76 1026.28 1026.75
1030.14 1029.93 1029.56 1029.03 1028.35 1027.53 1026.63 1025.66 1024.69 1023.73 1022.83 1022.00 1021.24 1020.57 1019.98 1019.45 1018.98 1018.57 1018.21 1017.91 1017.68 1017.53 1017.47 1017.50 1017.63 1017.86 1018.17 1018.55 1018.99 1019.47 1019.98 1020.49 1021.02 1021.54 1022.07 1022.61 1023.16 1023.71 1024.28 1024.85 1025.41 1025.95 1026.44 1026.87
1030.51 1030.27 1029.86 1029.28 1028.53 1027.66 1026.70 1025.70 1024.70 1023.74 1022.86 1022.07 1021.37 1020.77 1020.24 1019.78 1019.37 1019.01 1018.68 1018.40 1018.16 1017.99 1017.89 1017.88 1017.97 1018.15 1018.43 1018.79 1019.22 1019.71 1020.23 1020.77 1021.32 1021.88 1022.43 1022.98 1023.53 1024.08 1024.63 1025.16 1025.68 1026.18 1026.62 1027.01
1030.74 1030.48 1030.04 1029.41 1028.63 1027.72 1026.74 1025.73 1024.75 1023.82 1022.99 1022.25 1021.63 1021.09 1020.63 1020.23 1019.87 1019.53 1019.21 1018.93 1018.67 1018.47 1018.34 1018.29 1018.34 1018.49 1018.75 1019.11 1019.55 1020.05 1020.60 1021.17 1021.75 1022.33 1022.90 1023.46 1024.00 1024.53 1025.04 1025.53 1025.99 1026.43 1026.82 1027.16
1030.84 1030.56 1030.08 1029.43 1028.63 1027.71 1026.73 1025.75 1024.81 1023.94 1023.17 1022.51 1021.96 1021.49 1021.10 1020.75 1020.42 1020.11 1019.80 1019.50 1019.23 1019.01 1018.85 1018.77 1018.80 1018.94 1019.20 1019.56 1020.02 1020.54 1021.11 1021.71 1022.31 1022.90 1023.48 1024.02 1024.53 1025.02 1025.48 1025.91 1026.32 1026.69 1027.02 1027.31
1030.82 1030.51 1030.01 1029.34 1028.54 1027.63 1026.69 1025.76 1024.88 1024.09 1023.40 1022.83 1022.35 1021.96 1021.63 1021.32 1021.03 1020.74 1020.44 1020.14 1019.86 1019.63 1019.45 1019.37 1019.40 1019.54 1019.80 1020.17 1020.64 1021.18 1021.77 1022.37 1022.98 1023.56 1024.11 1024.62 1025.09 1025.52 1025.92 1026.29 1026.63 1026.94 1027.22 1027.46
1030.72 1030.38 1029.86 1029.19 1028.40 1027.53 1026.64 1025.78 1024.98 1024.28 1023.69 1023.21 1022.82 1022.50 1022.22 1021.97 1021.71 1021.44 1021.16 1020.87 1020.60 1020.36 1020.19 1020.12 1020.15 1020.30 1020.57 1020.95 1021.42 1021.96 1022.54 1023.14 1023.72 1024.27 1024.77 1025.23 1025.64 1026.00 1026.33 1026.63 1026.91 1027.16 1027.39 1027.60
1030.55 1030.19 1029.67 1029.01 1028.25 1027.44 1026.62 1025.85 1025.15 1024.56 1024.06 1023.67 1023.37 1023.12 1022.91 1022.70 1022.48 1022.24 1021.98 1021.71 1021.46 1021.24 1021.09 1021.02 1021.06 1021.22 1021.49 1021.88 1022.34 1022.86 1023.41 1023.97 1024.50 1024.99 1025.44 1025.82 1026.16 1026.45 1026.71 1026.94 1027.16 1027.36 1027.55 1027.72
1030.35 1029.98 1029.46 1028.83 1028.13 1027.39 1026.67 1026.00 1025.42 1024.93 1024.54 1024.25 1024.03 1023.85 1023.70 1023.54 1023.36 1023.15 1022.92 1022.68 1022.45 1022.25 1022.12 1022.08 1022.13 1022.29 1022.56 1022.93 1023.37 1023.85 1024.35 1024.85 1025.31 1025.73 1026.09 1026.40 1026.66 1026.88 1027.06 1027.24 1027.40 1027.56 1027.71 1027.85
1030.11 1029.74 1029.25 1028.67 1028.05 1027.41 1026.80 1026.25 1025.79 1025.42 1025.14 1024.94 1024.80 1024.69 1024.59 1024.48 1024.34 1024.17 1023.97 1023.76 1023.56 1023.39 1023.29 1023.26 1023.33 1023.49 1023.75 1024.08 1024.48 1024.91 1025.35 1025.77 1026.15 1026.48 1026.76 1026.98 1027.15 1027.30 1027.42 1027.53 1027.65 1027.76 1027.88 1027.99
1029.84 1029.49 1029.05 1028.54 1028.01 1027.48 1027.00 1026.58 1026.25 1026.00 1025.83 1025.72 1025.66 1025.61 1025.56 1025.49 1025.39 1025.25 1025.09 1024.91 1024.75 1024.61 1024.53 1024.53 1024.60 1024.77 1025.01 1025.31 1025.66 1026.02 1026.38 1026.72 1027.01 1027.25 1027.44 1027.57 1027.67 1027.74 1027.80 1027.86 1027.92 1027.99 1028.08 1028.15
Thickness
5418 5419 5417 5418 5419 5417 5420 5434 5444 5452 5449 5450 5447 5442 5441 5441 5443 5444 5445 5446 5447 5449 5451 5453 5455 5457 5459 5461 5463 5466 5469 5472 5475 5477 5479 5480 5482 5484 5486 5487 5489 5491 5492 5493
5413 5414 5412 5412 5418 5418 5417 5421 5428 5433 5437 5439 5434 5432 5432 5432 5434 5435 5435 5436 5437 5439 5441 5443 5445 5447 5449 5451 5453 5455 5459 5461 5463 5466 5468 5470 5472 5473 5475 5477 5478 5480 5482 5483
5422 5411 5411 5424 5421 5417 5416 5415 5418 5427 5433 5430 5428 5425 5425 5425 5425 5426 5426 5426 5427 5430 5431 5432 5435 5436 5438 5440 5442 5445 5448 5450 5453 5455 5457 5459 5461 5464 5465 5467 5468 5470 5471 5473
5407 5407 5415 5428 5406 5407 5408 5410 5410 5413 5418 5419 5419 5419 5418 5417 5418 5417 5416 5416 5418 5420 5421 5422 5424 5427 5428 5430 5432 5435 5437 5440 5442 5445 5447 5449 5451 5453 5455 5456 5458 5459 5460 5462
5396 5406 5420 5418 5404 5398 5400 5407 5408 5407 5408 5409 5408 5412 5415 5410 5409 5408 5407 5407 5408 5410 5411 5414 5416 5418 5419 5421 5423 5425 5427 5429 5432 5434 5436 5438 5440 5443 5444 5446 5447 5448 5449 5450
5383 5397 5415 5421 5396 5390 5393 5407 5406 5401 5401 5402 5402 5414 5416 5405 5401 5400 5400 5399 5400 5401 5403 5405 5407 5409 5411 5412 5414 5416 5417 5419 5421 5424 5426 5428 5430 5431 5433 5435 5436 5437 5438 5439
5381 5390 5408 5400 5385 5386 5400 5410 5397 5395 5395 5395 5396 5398 5397 5394 5393 5391 5391 5391 5392 5393 5395 5396 5398 5400 5402 5404 5405 5406 5407 5409 5411 5414 5416 5418 5420 5421 5422 5425 5426 5426 5427 5428
5377 5384 5400 5387 5381 5388 5396 5391 5389 5388 5388 5386 5386 5386 5385 5384 5384 5383 5383 5384 5384 5386 5387 5388 5390 5392 5394 5395 5395 5396 5398 5400 5402 5404 5406 5408 5410 5411 5412 5414 5415 5416 5416 5417
5381 5394 5389 5379 5381 5381 5379 5380 5381 5381 5379 5377 5377 5378 5377 5376 5376 5375 5375 5376 5376 5377 5379 5380 5381 5383 5385 5386 5386 5388 5390 5391 5393 5396 5397 5399 5401 5402 5402 5403 5405 5405 5406 5407
5368 5382 5379 5375 5373 5372 5371 5371 5372 5371 5370 5370 5369 5370 5369 5368 5368 5368 5367 5367 5368 5369 5371 5373 5374 5375 5376 5377 5378 5380 5381 5383 5385 5387 5389 5390 5391 5392 5393 5394 5395 5395 5396 5396
5366 5375 5373 5374 5370 5369 5366 5365 5364 5364 5363 5363 5362 5363 5362 5361 5361 5360 5360 5360 5360 5361 5362 5364 5365 5367 5368 5369 5370 5372 5373 5375 5377 5378 5380 5380 5381 5382 5382 5383 5384 5386 5387 5388
5383 5379 5373 5376 5369 5363 5361 5361 5360 5359 5358 5357 5356 5356 5356 5355 5354 5353 5352 5352 5351 5352 5353 5355 5356 5358 5359 5361 5362 5364 5366 5367 5368 5369 5369 5371 5372 5372 5372 5373 5374 5374 5376 5377
5373 5369 5366 5365 5361 5358 5357 5356 5354 5353 5352 5352 5350 5349 5348 5348 5347 5345 5344 5344 5344 5344 5345 5346 5348 5349 5351 5352 5353 5356 5357 5358 5359 5360 5360 5361 5362 5363 5364 5364 5364 5365 5366 5367
5361 5357 5357 5357 5356 5352 5350 5349 5347 5346 5345 5344 5343 5342 5340 5339 5339 5338 5337 5337 5337 5337 5338 5339 5340 5341 5342 5343 5345 5347 5348 5349 5350 5351 5352 5352 5353 5354 5354 5355 5355 5355 5356 5357
5356 5353 5353 5351 5348 5346 5344 5342 5340 5339 5338 5337 5336 5335 5333 5333 5332 5331 5330 5329 5329 5329 5330 5331 5332 5333 5334 5335 5337 5338 5339 5340 5341 5343 5343 5344 5344 5344 5345 5345 5346 5346 5347 5348
5352 5347 5345 5343 5342 5340 5337 5336 5335 5334 5332 5331 5329 5328 5326 5325 5324 5323 5323 5322 5322 5323 5323 5324 5325 5326 5327 5328 5329 5330 5331 5332 5333 5335 5335 5335 5336 5336 5337 5337 5337 5338 5338 5339
5346 5344 5341 5340 5338 5335 5332 5331 5330 5328 5326 5324 5322 5320 5319 5318 5317 5317 5315 5315 5315 5316 5316 5317 5318 5319 5320 5321 5322 5323 5324 5325 5325 5327 5328 5328 5328 5329 5329 5329 5329 5330 5330 5331
5344 5343 5340 5337 5334 5330 5327 5325 5323 5321 5319 5318 5315 5313 5312 5312 5312 5311 5309 5308 5308 5309 5310 5311 5312 5313 5313 5314 5315 5316 5317 5318 5319 5321 5321 5321 5321 5322 5321 5321 5321 5322 5323 5323
5336 5334 5332 5329 5327 5324 5322 5320 5317 5315 5313 5311 5309 5307 5307 5306 5305 5304 5303 5302 5303 5305 5305 5305 5306 5307 5308 5308 5309 5310 5311 5312 5313 5314 5315 5315 5315 5315 5315 5315 5315 5315 5316 5317
5329 5327 5324 5322 5320 5317 5315 5313 5311 5309 5307 5304 5303 5301 5300 5299 5298 5297 5296 5297 5299 5299 5299 5299 5300 5301 5301 5302 5303 5304 5305 5306 5306 5307 5308 5309 5309 5309 5309 5309 5309 5309 5310 5311
5322 5320 5318 5315 5313 5311 5308 5306 5304 5303 5300 5298 5297 5296 5294 5293 5292 5291 5291 5292 5292 5292 5293 5293 5294 5295 5295 5296 5297 5297 5298 5299 5300 5300 5301 5302 5303 5303 5303 5303 5303 5304 5304 5305
5314 5313 5311 5309 5306 5304 5302 5299 5297 5296 5294 5292 5290 5289 5287 5286 5285 5285 5284 5286 5286 5286 5286 5287 5288 5288 5289 5290 5290 5291 5292 5293 5294 5294 5295 5296 5297 5298 5298 5298 5299 5299 5299 5300
5308 5306 5305 5302 5300 5298 5295 5293 5291 5289 5288 5286 5285 5283 5283 5282 5281 5281 5280 5279 5279 5280 5281 5281 5282 5283 5284 5284 5285 5285 5286 5287 5288 5289 5290 5291 5292 5292 5293 5293 5294 5294 5294 5295
5303 5300 5298 5295 5292 5289 5288 5287 5284 5283 5282 5280 5279 5277 5277 5276 5275 5275 5274 5273 5274 5274 5275 5276 5277 5278 5278 5279 5279 5280 5281 5282 5283 5284 5285 5285 5286 5287 5288 5289 5289 5290 5290 5291
5297 5294 5291 5288 5287 5287 5285 5281 5278 5277 5276 5276 5274 5273 5271 5271 5270 5269 5268 5268 5268 5269 5269 5270 5271 5272 5273 5273 5274 5275 5276 5277 5278 5279 5280 5281 5282 5282 5283 5284 5285 5286 5287 5287
5292 5291 5289 5286 5284 5283 5280 5277 5276 5274 5273 5271 5270 5268 5266 5265 5264 5263 5262 5263 5263 5263 5264 5264 5265 5266 5267 5268 5269 5270 5271 5272 5273 5274 5275 5276 5278 5278 5279 5280 5281 5282 5283 5284
5286 5284 5281 5280 5279 5277 5275 5273 5272 5271 5269 5268 5266 5263 5261 5260 5259 5258 5258 5258 5258 5258 5259 5259 5260 5261 5262 5263 5264 5265 5266 5267 5269 5270 5271 5272 5274 5275 5276 5277 5278 5279 5280 5281